TimeAKST,TemperatureF,Dew PointF,Humidity,Sea Level PressureIn,VisibilityMPH,Wind Direction,Wind SpeedMPH,Gust SpeedMPH,PrecipitationIn,Events,Conditions,WindDirDegrees,DateUTC
12:53 AM,44.1,32.0,63,30.17,10.0,ESE,17.3,21.9,N/A,,Clear,120,2013-01-01 09:53:00
1:53 AM,44.1,32.0,63,30.14,10.0,ESE,18.4,27.6,N/A,,Scattered Clouds,110,2013-01-01 10:53:00
3:53 AM,45.0,30.9,58,30.10,10.0,ESE,17.3,25.3,N/A,,Scattered Clouds,110,2013-01-01 12:53:00
4:53 AM,45.0,30.0,56,30.07,10.0,ESE,19.6,28.8,N/A,,Partly Cloudy,110,2013-01-01 13:53:00
5:53 AM,46.0,28.0,50,30.01,10.0,ESE,27.6,33.4,N/A,,Clear,110,2013-01-01 14:53:00
6:53 AM,46.0,28.9,51,29.99,7.0,ESE,20.7,31.1,N/A,,Scattered Clouds,110,2013-01-01 15:53:00
7:53 AM,46.0,28.0,50,29.95,7.0,ESE,24.2,32.2,N/A,,Scattered Clouds,110,2013-01-01 16:53:00
8:53 AM,46.0,30.0,54,29.91,10.0,ESE,29.9,38.0,N/A,,Overcast,110,2013-01-01 17:53:00
9:53 AM,48.0,26.1,42,29.85,10.0,ESE,32.2,46.0,N/A,,Overcast,110,2013-01-01 18:53:00
10:53 AM,48.9,26.1,41,29.83,10.0,ESE,32.2,46.0,N/A,,Overcast,110,2013-01-01 19:53:00
11:53 AM,48.0,27.0,44,29.82,10.0,ESE,29.9,39.1,N/A,,Overcast,110,2013-01-01 20:53:00
12:53 PM,48.9,27.0,43,29.83,10.0,East,28.8,35.7,0.00,Rain,Light Rain,100,2013-01-01 21:53:00
1:53 PM,46.9,30.0,52,29.82,10.0,ESE,21.9,34.5,0.00,,Overcast,110,2013-01-01 22:53:00
2:53 PM,42.1,35.1,76,29.80,6.0,ESE,24.2,33.4,0.00,Rain,Light Rain,120,2013-01-01 23:53:00
3:38 PM,42.8,35.6,76,29.79,7.0,ESE,23.0,29.9,0.02,Rain,Light Rain,120,2013-01-02 00:38:00
3:53 PM,42.1,36.0,79,29.79,8.0,ESE,24.2,32.2,0.02,Rain,Light Rain,110,2013-01-02 00:53:00
4:26 PM,42.8,37.4,81,29.79,7.0,ESE,24.2,35.7,0.02,Rain,Light Rain,120,2013-01-02 01:26:00
4:53 PM,42.1,37.0,82,29.80,8.0,ESE,23.0,28.8,0.04,Rain,Light Rain,120,2013-01-02 01:53:00
5:48 PM,42.8,37.4,81,29.80,7.0,ESE,20.7,28.8,0.03,Rain,Light Rain,110,2013-01-02 02:48:00
5:53 PM,41.0,37.0,86,29.80,7.0,ESE,20.7,31.1,0.04,Rain,Light Rain,110,2013-01-02 02:53:00
6:53 PM,41.0,37.0,86,29.79,8.0,ESE,19.6,25.3,0.04,Rain,Light Rain,110,2013-01-02 03:53:00
7:21 PM,41.0,37.4,87,29.79,8.0,ESE,17.3,26.5,0.01,Rain,Light Rain,110,2013-01-02 04:21:00
7:53 PM,41.0,37.0,86,29.79,9.0,ESE,18.4,-,0.03,Rain,Light Rain,110,2013-01-02 04:53:00
8:15 PM,41.0,37.4,87,29.80,8.0,ESE,18.4,26.5,0.01,Rain,Light Rain,110,2013-01-02 05:15:00
8:53 PM,41.0,37.0,86,29.81,10.0,ESE,16.1,-,0.04,Rain,Light Rain,110,2013-01-02 05:53:00
9:53 PM,41.0,37.0,86,29.82,8.0,ESE,12.7,-,0.06,Rain,Light Rain,110,2013-01-02 06:53:00
10:53 PM,39.9,37.0,89,29.84,5.0,SE,9.2,-,0.13,Rain,Rain,140,2013-01-02 07:53:00
11:37 PM,39.2,37.4,93,29.83,6.0,ESE,5.8,-,0.08,Rain,Rain,120,2013-01-02 08:37:00
11:53 PM,39.0,37.9,96,29.83,6.0,ESE,5.8,-,0.11,Rain,Rain,120,2013-01-02 08:53:00